Regional Weather Roundup
Issued by NWS Green Bay, WI

Home | Current Version | Previous Version | Graphics & Text | Print | Product List | Glossary Off
Versions: 1 2 3 4 5 6 7 8 9 10 11 12 13 14 15 16 17 18 19 20 21 22 23 24 25 26 27 28 29 30 31 32 33 34 35 36 37 38 39 40 41 42 43 44 45 46 47 48 49 50

000
ASUS43 KGRB 231611
RWRGRB

NORTH-CENTRAL AND NORTHEAST WISCONSIN REGIONAL WEATHER ROUNDUP
NATIONAL WEATHER SERVICE GREEN BAY WI
1100 AM CDT WED MAY 23 2018

WIZ005-009-010>012-018-019-231700-
NORTH CENTRAL WISCONSIN

CITY           SKY/WX    TMP DP  RH WIND       PRES   REMARKS
IRONWOOD       FAIR      75  55  49 N3        30.15F
MANITOWISH WTR NOT AVBL
ARBOR VITAE    PTSUNNY   77  57  50 S6        30.17S
EAGLE RIVER    FAIR      75  49  39 SW6       30.17S
LAND O LAKES   PTSUNNY   75  51  42 NW7       30.18F
RHINELANDER    FAIR      76  56  49 S6        30.18F
PHILLIPS       FAIR      72  56  57 CALM      30.16F
ANTIGO         FAIR      73  57  58 CALM      30.18F
TOMAHAWK       FAIR      72  56  55 CALM      30.18S
MERRILL        FAIR      73  59  61 CALM      30.18F
$$

WIZ013-073-231700-
NORTHEAST WISCONSIN

CITY           SKY/WX    TMP DP  RH WIND       PRES   REMARKS
IRON MOUNTAIN  FAIR      78  38  23 SE6       30.15F
MARINETTE      FAIR      68  53  58 SE7       30.17F
OCONTO         FAIR      73  57  57 SE6       30.16S
$$

WIZ017-030-035>037-045-231700-
CENTRAL WISCONSIN

CITY           SKY/WX    TMP DP  RH WIND       PRES   REMARKS
MEDFORD        FAIR      70  55  57 S3        30.17S
WAUSAU         FAIR      72  58  61 W5        30.16F
MOSINEE        MOSUNNY   72  57  60 S5        30.19S
MARSHFIELD     FAIR      72  58  61 VRB7      30.17S
WISC RAPIDS    FAIR      71  57  61 MISG      30.18F
STEVENS POINT  FAIR      71  56  60 S3        30.18S
WAUPACA        FAIR      76  58  53 CALM      30.18S
SHAWANO        FAIR      77  54  44 CALM      30.16F
CLINTONVILLE   FAIR      74  57  54 CALM      30.16F
WAUTOMA        FAIR      70  60  70 S5        30.18
$$

WIZ038-039-048-051-231700-
FOX VALLEY

CITY           SKY/WX    TMP DP  RH WIND       PRES   REMARKS
NWS GREEN BAY  FAIR      77  61  57 VRB6      30.17S
APPLETON       MOSUNNY   72  55  56 W6        30.18S
OSHKOSH        FAIR      72  58  61 W7        30.18S
FOND DU LAC    FAIR      71  59  65 SW7       30.19S
$$

WIZ022-050-052-231700-
EAST CENTRAL WISCONSIN

CITY           SKY/WX    TMP DP  RH WIND       PRES   REMARKS
EPHRAIM        FAIR      69  55  60 N3        30.17R
WASHINGTON ISL FAIR      66  56  69 W3        30.16S
STURGEON BAY   NOT AVBL
MANITOWOC      FAIR      75  60  59 SW5       30.18S
SHEBOYGAN      FAIR      76  54  46 CALM      30.18S
$$

LMZ563-521-522-541>543-231700-
LAKESHORE

STATION/POSITION TIME  TEMP    WIND        PRES    VSBY  WAVE
                       AIR SEA DIR/SP/G                  HT/PER
                 (UTC) (F)     (DEG/KT/KT) (MB)    (MI)  (FT/S)
SHEBOYGAN LKSHOR 1600   48     160/  7/  8 1022.2F
KEWAUNEE LKSHORE 1542   58     160/  4/  5 1021.0F
NORTHPORT PIER   1540   52     330/  3/  4 1021.3S
N MID LAKE BUOY  1550   39 38  190/  6/  6 1021.7R         1
SISTER BAY LKSHO 1558   57     320/  3/  4   N/A
MENOMINEE LKSHOR 1536   58     120/  5/  5 1021.4S
$$




USA.gov is the U.S. government's official web portal to all federal, state and local government web resources and services.